Wind_Speed
51 51 50 50 49 49 48 48 47 47 46 46 47 47 46 47 47 47 47 47 47 46 46 46 45 46 46 46 45 45 45 45 44 45 45 45 44 44
53 52 52 52 51 51 50 50 49 49 48 47 48 48 48 48 48 48 48 48 48 48 48 47 47 47 47 47 47 46 47 47 46 47 47 46 46 45
54 54 54 54 54 53 52 51 50 51 50 49 49 50 49 49 49 49 50 50 50 49 49 49 49 49 50 49 48 48 48 49 49 49 49 48 48 48
56 56 55 56 56 55 54 53 52 52 52 51 50 51 51 51 51 51 51 51 50 50 50 50 50 50 51 51 51 50 50 50 50 51 51 50 49 49
57 57 57 57 57 56 55 54 54 54 54 53 52 52 52 52 52 52 52 52 52 51 51 51 51 51 52 52 53 52 52 52 52 53 53 52 51 51
59 58 58 58 58 56 56 55 55 55 55 55 54 53 54 53 54 54 54 54 54 53 52 52 52 52 52 52 53 53 53 53 53 54 54 54 53 52
59 59 59 59 58 58 57 56 56 57 57 56 56 55 55 56 55 55 55 55 55 55 54 53 53 53 53 52 53 53 53 53 53 54 55 55 54 54
58 59 59 59 59 59 58 57 58 58 59 59 58 57 56 57 57 57 57 57 56 55 55 54 54 53 53 53 53 53 53 53 54 55 55 56 56 55
58 59 59 59 59 58 58 58 58 58 58 58 58 58 58 58 58 59 58 58 57 56 56 55 55 54 54 54 54 54 54 54 54 55 56 56 56 57
59 59 59 59 59 59 59 58 57 57 58 58 58 58 58 58 58 58 58 58 57 57 57 56 55 55 55 55 55 55 55 55 55 56 56 56 56 56
58 59 59 59 59 59 59 58 58 58 58 59 58 58 57 57 57 58 58 58 58 57 57 57 56 55 55 55 55 55 55 55 55 55 56 56 56 56
58 59 59 59 58 57 58 58 58 58 59 58 58 57 57 56 57 58 57 58 58 57 56 56 56 56 55 55 55 55 54 54 55 56 57 57 57 57
57 57 57 57 56 56 57 57 56 57 57 57 56 56 56 55 56 56 56 57 57 56 55 56 56 55 55 54 54 54 54 54 55 56 56 56 57 57
54 54 54 54 54 55 55 56 55 55 55 55 55 55 54 54 54 54 54 54 54 54 53 54 55 55 54 54 54 54 54 55 55 55 56 56 56 57
52 52 52 53 53 53 53 53 53 53 53 53 53 53 53 53 53 53 53 53 52 52 51 53 53 53 53 53 53 54 54 54 55 55 56 57 57 57
51 51 51 51 51 51 50 50 51 51 52 52 52 52 52 52 52 52 52 51 51 50 51 52 53 53 53 53 54 54 54 54 55 55 56 56 57 57
49 49 50 50 50 50 49 49 49 49 50 51 51 51 51 51 50 50 51 51 51 51 51 52 52 52 53 53 54 54 54 54 54 55 56 56 56 56
47 48 49 49 49 49 49 48 48 48 48 49 50 50 50 49 49 50 51 51 51 51 51 51 52 53 53 53 54 54 54 54 54 54 55 56 55 55
46 46 47 47 47 48 48 47 47 47 47 48 48 48 48 48 49 49 49 50 51 51 51 52 52 53 53 52 51 53 54 53 53 53 54 55 54 54
43 43 44 45 45 46 47 47 47 47 47 47 48 48 48 48 48 48 49 49 50 50 50 51 52 52 52 51 51 50 52 52 52 52 52 52 52 52
40 40 41 42 42 43 44 45 46 47 47 47 47 47 47 47 46 47 47 48 49 49 50 50 49 49 50 50 50 49 49 49 49 49 50 50 50 49
38 39 39 39 40 41 42 43 44 45 45 46 46 46 46 46 45 45 45 46 46 46 47 47 47 48 48 49 48 48 47 47 48 48 48 48 48 47
36 36 36 37 37 38 40 41 42 42 43 44 45 45 45 45 45 44 44 44 44 44 44 45 45 45 45 45 46 46 45 45 45 45 45 45 44 44
Wind_Direction
265 265 266 266 265 265 265 266 265 263 261 261 262 262 262 262 261 260 260 258 258 259 259 258 257 256 256 256 257 258 256 256 256 254 254 255 256 257
265 265 265 265 264 264 265 265 265 264 262 261 261 261 261 261 261 260 259 259 259 259 259 258 256 256 256 256 258 258 256 256 255 254 254 255 256 257
265 265 264 264 264 264 265 266 265 264 263 261 261 261 261 261 261 261 260 259 259 259 259 258 257 257 257 258 258 258 256 256 256 254 255 256 257 257
264 264 264 263 264 264 265 265 265 264 264 262 260 260 260 261 261 261 261 259 259 259 260 259 258 259 259 258 258 258 257 256 256 254 255 255 256 256
263 263 264 264 264 264 265 265 264 264 265 264 262 260 260 261 261 261 262 260 260 259 259 259 259 260 259 259 258 258 258 258 257 255 255 255 256 256
263 263 264 264 264 264 264 265 264 264 265 264 263 262 261 261 262 262 262 261 260 259 259 260 260 260 259 259 259 259 258 258 258 256 255 255 255 256
263 263 263 264 264 264 265 266 266 265 265 264 264 263 262 261 262 262 262 261 260 260 260 260 260 260 260 259 259 259 258 257 257 257 256 255 255 256
263 264 264 265 266 266 266 266 266 265 265 264 263 263 263 262 262 262 261 260 259 259 259 260 260 260 260 260 260 260 259 258 258 257 257 257 255 256
264 264 265 266 266 266 266 266 265 265 265 264 263 263 263 263 263 261 260 259 258 258 259 259 260 260 260 260 261 261 260 260 258 257 258 258 258 257
264 264 264 265 266 266 266 265 265 264 264 264 264 263 263 263 262 260 258 258 258 258 258 258 259 259 259 259 260 260 261 261 259 259 259 259 258 258
264 264 265 266 266 266 266 266 265 264 264 263 263 262 262 261 261 260 259 259 258 257 258 259 258 259 259 258 259 259 260 260 259 258 258 258 259 259
264 265 266 266 266 266 266 266 265 264 263 263 262 261 261 261 261 261 260 260 258 257 258 259 258 259 259 258 259 259 259 259 260 259 258 258 258 258
264 264 265 266 266 266 266 266 265 264 263 262 261 260 261 261 261 261 261 260 259 258 258 258 258 258 259 258 258 259 259 260 260 259 258 258 258 258
263 263 264 265 266 266 267 267 265 264 262 262 261 260 260 260 260 260 260 260 260 258 257 257 257 258 258 258 258 259 260 260 260 259 259 259 259 259
264 263 264 264 265 266 266 266 264 262 262 261 261 260 260 259 258 259 259 258 258 257 257 257 258 258 259 259 259 259 260 261 260 260 259 259 259 260
264 264 264 265 265 265 265 264 263 262 262 261 261 260 260 259 258 258 258 256 256 256 257 258 258 259 259 260 260 260 261 262 261 261 260 260 260 261
264 264 265 265 265 264 264 264 264 263 262 261 260 259 259 258 258 257 257 257 257 257 258 259 259 260 261 261 260 261 262 262 262 261 261 261 261 261
266 267 266 266 265 265 263 263 263 263 262 261 260 259 258 258 258 258 258 257 257 257 258 259 260 261 261 261 262 262 262 262 262 262 262 262 261 261
268 268 267 266 266 264 263 262 262 262 262 261 260 259 258 258 258 259 258 258 258 258 258 259 260 261 261 262 262 263 262 262 262 262 262 262 261 261
269 269 268 267 266 265 264 263 262 263 262 262 260 259 259 259 259 259 259 258 258 258 258 260 261 261 262 262 262 262 262 262 261 262 262 262 261 262
270 269 269 268 267 266 265 264 263 263 262 262 261 260 260 259 259 259 259 258 258 258 258 258 260 261 262 262 261 261 261 262 263 262 262 263 263 262
271 270 270 269 269 268 266 265 264 263 263 262 261 260 260 261 260 260 259 259 259 259 258 258 259 261 262 262 262 261 261 261 262 263 263 263 263 263
272 271 270 270 270 269 268 267 266 264 263 262 260 260 260 260 260 260 259 258 258 259 259 259 259 260 261 262 261 260 261 261 261 261 260 261 263 263
Height
5663 5664 5664 5665 5665 5666 5667 5667 5669 5671 5674 5675 5675 5676 5677 5679 5680 5682 5684 5686 5688 5690 5693 5695 5697 5700 5702 5705 5707 5710 5712 5714 5716 5719 5721 5723 5725 5727
5648 5650 5650 5651 5652 5652 5653 5654 5654 5656 5659 5662 5662 5663 5664 5665 5667 5668 5670 5672 5675 5677 5679 5682 5684 5687 5689 5692 5695 5696 5699 5701 5704 5706 5708 5711 5713 5715
5633 5635 5636 5636 5637 5638 5639 5640 5640 5641 5643 5647 5648 5649 5650 5651 5653 5654 5656 5659 5661 5664 5666 5668 5670 5673 5676 5678 5681 5683 5685 5688 5690 5692 5694 5697 5699 5702
5618 5620 5621 5621 5622 5623 5624 5625 5626 5627 5628 5631 5633 5634 5636 5637 5639 5641 5642 5645 5647 5650 5652 5654 5656 5658 5661 5664 5666 5669 5671 5673 5676 5679 5682 5684 5686 5688
5603 5604 5605 5606 5607 5608 5609 5610 5611 5611 5613 5615 5618 5619 5621 5622 5624 5626 5628 5630 5632 5635 5637 5639 5642 5644 5646 5648 5651 5653 5656 5659 5662 5665 5666 5669 5672 5674
5586 5588 5589 5590 5591 5592 5593 5594 5594 5596 5597 5599 5601 5604 5606 5607 5609 5611 5613 5615 5617 5619 5622 5624 5626 5629 5631 5633 5636 5638 5640 5643 5645 5648 5651 5654 5656 5659
5570 5571 5573 5574 5574 5575 5576 5578 5578 5579 5581 5582 5585 5587 5590 5591 5593 5595 5597 5599 5601 5603 5606 5609 5611 5614 5616 5617 5620 5622 5625 5627 5630 5633 5635 5638 5641 5644
5553 5555 5556 5557 5558 5558 5559 5560 5561 5562 5564 5565 5568 5570 5573 5574 5576 5577 5579 5582 5586 5590 5590 5593 5595 5598 5600 5603 5605 5607 5609 5611 5614 5617 5619 5622 5625 5628
5536 5538 5539 5540 5540 5541 5542 5543 5544 5545 5546 5548 5550 5553 5555 5557 5558 5560 5562 5564 5569 5572 5573 5577 5579 5582 5585 5587 5589 5591 5593 5596 5598 5601 5603 5606 5609 5612
5519 5521 5522 5523 5523 5524 5525 5526 5527 5528 5529 5530 5533 5536 5536 5538 5539 5541 5543 5546 5551 5554 5556 5560 5564 5566 5569 5571 5573 5575 5577 5579 5582 5584 5587 5590 5593 5595
5502 5504 5505 5506 5507 5507 5507 5509 5511 5512 5511 5512 5514 5516 5518 5520 5521 5523 5526 5529 5533 5537 5539 5543 5547 5550 5553 5555 5557 5559 5561 5563 5565 5568 5570 5573 5576 5579
5486 5487 5488 5488 5489 5488 5489 5490 5492 5494 5494 5496 5497 5499 5501 5503 5504 5505 5508 5511 5515 5520 5523 5526 5530 5532 5536 5540 5541 5543 5545 5547 5549 5551 5554 5557 5559 5562
5468 5469 5470 5471 5471 5472 5472 5473 5475 5476 5476 5478 5480 5482 5484 5486 5488 5489 5491 5493 5497 5503 5507 5508 5512 5514 5518 5523 5526 5527 5529 5531 5533 5535 5538 5540 5543 5545
5451 5452 5454 5454 5454 5455 5455 5456 5457 5458 5459 5461 5463 5466 5469 5471 5473 5474 5475 5477 5481 5486 5489 5491 5495 5498 5501 5505 5509 5512 5513 5515 5517 5519 5521 5524 5526 5528
5434 5436 5437 5438 5438 5439 5439 5440 5440 5441 5443 5445 5448 5451 5453 5455 5457 5458 5460 5462 5465 5469 5472 5475 5478 5481 5484 5488 5492 5495 5497 5499 5500 5503 5505 5507 5510 5512
5418 5420 5421 5421 5422 5423 5423 5424 5424 5425 5427 5430 5433 5435 5437 5439 5441 5443 5445 5448 5451 5455 5457 5460 5463 5465 5468 5472 5475 5478 5481 5483 5485 5486 5488 5491 5493 5495
5403 5403 5405 5406 5406 5407 5408 5409 5410 5411 5412 5415 5417 5419 5421 5424 5426 5428 5431 5433 5436 5440 5443 5445 5446 5449 5452 5455 5458 5461 5464 5466 5468 5469 5470 5473 5477 5479
5387 5388 5390 5391 5391 5392 5394 5395 5396 5397 5398 5399 5401 5403 5406 5409 5411 5413 5415 5418 5421 5425 5428 5430 5431 5433 5435 5438 5441 5444 5446 5449 5450 5452 5453 5456 5461 5464
5373 5374 5375 5375 5376 5377 5379 5380 5382 5383 5384 5385 5387 5389 5391 5393 5396 5398 5401 5403 5406 5409 5413 5414 5415 5417 5419 5424 5428 5427 5429 5431 5433 5435 5437 5439 5444 5448
5359 5360 5361 5361 5362 5363 5364 5366 5367 5369 5370 5371 5373 5375 5377 5379 5381 5384 5386 5388 5391 5394 5397 5398 5400 5401 5404 5408 5412 5413 5412 5414 5416 5419 5422 5424 5427 5430
5347 5347 5348 5348 5348 5349 5350 5351 5352 5354 5355 5357 5359 5361 5363 5365 5367 5369 5371 5374 5376 5378 5381 5384 5386 5387 5389 5391 5394 5398 5399 5399 5400 5403 5406 5408 5411 5414
5335 5335 5335 5335 5336 5336 5336 5337 5338 5340 5341 5343 5345 5347 5349 5351 5353 5356 5357 5359 5362 5364 5367 5370 5371 5372 5374 5376 5379 5383 5385 5385 5386 5388 5391 5394 5395 5399
5323 5323 5323 5323 5323 5323 5323 5324 5325 5326 5327 5329 5331 5333 5335 5337 5340 5342 5344 5346 5348 5351 5353 5355 5357 5359 5360 5362 5365 5367 5369 5371 5373 5375 5378 5380 5382 5385